STARLINK-3279 (50185 NORAD) Tracking and Keplerian Element Data
This shows tracking and keplerian element data for the satellite.
Feedback or suggestion? Click here.
Element | Value |
Catalog | 50185 |
Name | STARLINK-3279 |
Epoch Orbit | 130 |
Epoch Day | 140.58334491 |
Epoch Year | 2022 |
RAAN | 5.0606 |
Inclination | 53.2176 |
Eccentricity | 0.000194 |
Argument of Perigee | 38.2197 |
Mean Anonmoly | 128.2629 |
Mean Motion | 15.08834054 |
Decay Rate | 0.00014529 |
L1 | 1 50185U 21125AF 22140.58334491 .00014529 00000+0 92920-3 0 9991 |
L2 | 2 50185 53.2176 5.0606 0001940 38.2197 128.2629 15.08834054 1308 |
Live tracking and technical data element details for STARLINK-3279 (NORAD 50185). STARLINK-3279 can be tracked NOW for your location showing map with azimuth and elevation plus other details from your city location.
Track the satellite on the map from your city or location and see movement details for azimuth, elevation, latitude, longitude, range, height, and movement on the map or in text.
IsCatalogInMostPopularTable: catalog: 50185, numindb: 21
Update: records affected: 1
GetName: 50185 STARLINK-3279
Hit Count: updated at: Sun, 22 May 2022 04:50:23 GMT